CCA721 ZJSY-RCSS

Flight info

Callsign CCA721
Flight time N/A
Altitude 35000
Route PORAP1N PORAP W222 SAMAS A202 SIKOU/N0468F350 A202 BIGEX G581 MAGOG A1 HLG HLG1E
Aircraft B738/M-SDE2E3FGHIRWXY/LB1

Departure

Time 2026-05-05 14:40
Airport Sanya Phoenix International Airport (ZJSY)

Arrival

Time N/A
Airport Taipei Songshan International Airport (RCSS)
Time Latitude Longitude Altitude Speed Heading
2026-05-05 14:24 18.30808 109.40697 80 ft 0 kts 352°
2026-05-05 14:30 18.30801 109.40698 85 ft 4 kts 353°
2026-05-05 14:30 18.30775 109.40698 85 ft 4 kts 17°
2026-05-05 14:30 18.30755 109.40687 84 ft 4 kts 37°
2026-05-05 14:30 18.30734 109.40669 85 ft 4 kts 50°
2026-05-05 14:31 18.30719 109.40646 80 ft 4 kts 63°
2026-05-05 14:31 18.30709 109.40620 81 ft 4 kts 73°
2026-05-05 14:31 18.30702 109.40592 84 ft 4 kts 82°
2026-05-05 14:31 18.30699 109.40566 85 ft 2 kts 82°
2026-05-05 14:32 18.30699 109.40565 79 ft 1 kts 82°
2026-05-05 14:34 18.30702 109.40584 84 ft 5 kts 82°
2026-05-05 14:34 18.30699 109.40634 81 ft 8 kts 120°
2026-05-05 14:35 18.30643 109.40654 85 ft 10 kts 172°
2026-05-05 14:35 18.30569 109.40665 82 ft 12 kts 172°
2026-05-05 14:35 18.30482 109.40677 82 ft 14 kts 172°
2026-05-05 14:35 18.30409 109.40680 82 ft 10 kts 207°
2026-05-05 14:36 18.30384 109.40603 74 ft 14 kts 262°
2026-05-05 14:36 18.30368 109.40483 76 ft 19 kts 262°
2026-05-05 14:36 18.30349 109.40331 77 ft 21 kts 262°
2026-05-05 14:36 18.30329 109.40179 71 ft 21 kts 262°
2026-05-05 14:37 18.30310 109.40031 75 ft 20 kts 262°
2026-05-05 14:37 18.30291 109.39888 74 ft 19 kts 262°
2026-05-05 14:37 18.30273 109.39749 69 ft 19 kts 262°
2026-05-05 14:37 18.30261 109.39664 69 ft 8 kts 261°
2026-05-05 14:38 18.30223 109.39628 69 ft 8 kts 187°
2026-05-05 14:38 18.30170 109.39634 64 ft 8 kts 172°
2026-05-05 14:38 18.30119 109.39641 70 ft 7 kts 172°
2026-05-05 14:38 18.30089 109.39676 73 ft 7 kts 91°
2026-05-05 14:39 18.30095 109.39727 71 ft 7 kts 82°
2026-05-05 14:39 18.30114 109.39873 66 ft 49 kts 82°
2026-05-05 14:39 18.30193 109.40479 76 ft 116 kts 82°
2026-05-05 14:39 18.30324 109.41523 109 ft 168 kts 84°
2026-05-05 14:40 18.30474 109.42760 727 ft 171 kts 83°
2026-05-05 14:40 18.30641 109.43994 1437 ft 176 kts 83°
2026-05-05 14:40 18.30816 109.45276 2156 ft 177 kts 83°
2026-05-05 14:40 18.30988 109.46563 2901 ft 178 kts 83°
2026-05-05 14:41 18.31303 109.47823 3512 ft 190 kts 59°
2026-05-05 14:41 18.32371 109.48782 3776 ft 215 kts 34°
2026-05-05 14:41 18.33699 109.49695 3969 ft 239 kts 36°
2026-05-05 14:41 18.35103 109.50715 4414 ft 251 kts 36°
2026-05-05 14:42 18.36551 109.51788 5081 ft 256 kts 37°
2026-05-05 14:42 18.37993 109.52877 5939 ft 255 kts 36°
2026-05-05 14:42 18.39442 109.53985 6648 ft 260 kts 36°
2026-05-05 14:42 18.40890 109.55100 7326 ft 263 kts 36°
2026-05-05 14:43 18.42371 109.56243 8035 ft 266 kts 36°
2026-05-05 14:43 18.43873 109.57407 8734 ft 269 kts 36°
2026-05-05 14:43 18.45388 109.58582 9462 ft 272 kts 36°
2026-05-05 14:43 18.46921 109.59771 10121 ft 276 kts 36°
2026-05-05 14:44 18.48477 109.60979 10764 ft 279 kts 35°
2026-05-05 14:44 18.50137 109.62083 11256 ft 290 kts 26°
2026-05-05 14:44 18.52037 109.63017 11417 ft 312 kts 22°
2026-05-05 14:44 18.54073 109.63941 11589 ft 334 kts 22°
2026-05-05 14:45 18.56271 109.64937 11743 ft 354 kts 22°
2026-05-05 14:45 18.58586 109.66005 11914 ft 372 kts 22°
2026-05-05 14:45 18.60975 109.67127 12337 ft 379 kts 23°
2026-05-05 14:45 18.63394 109.68278 12897 ft 383 kts 23°
2026-05-05 14:46 18.65828 109.69442 13473 ft 386 kts 23°
2026-05-05 14:46 18.68281 109.70620 13975 ft 390 kts 23°
2026-05-05 14:46 18.70758 109.71809 14454 ft 393 kts 23°
2026-05-05 14:46 18.73219 109.72990 14940 ft 395 kts 23°
2026-05-05 14:47 18.75728 109.74194 15476 ft 397 kts 23°
2026-05-05 14:47 18.78256 109.75407 15985 ft 401 kts 23°
2026-05-05 14:47 18.80802 109.76627 16456 ft 403 kts 23°
2026-05-05 14:47 18.83368 109.77858 16919 ft 406 kts 23°
2026-05-05 14:48 18.85951 109.79098 17383 ft 409 kts 23°
2026-05-05 14:48 18.88550 109.80345 17816 ft 412 kts 22°
2026-05-05 14:48 18.91178 109.81607 18259 ft 416 kts 22°
2026-05-05 14:48 18.93785 109.82860 18639 ft 419 kts 22°
2026-05-05 14:49 18.96441 109.84137 19040 ft 420 kts 22°
2026-05-05 14:49 18.99104 109.85419 19432 ft 422 kts 22°
2026-05-05 14:49 19.01780 109.86706 19804 ft 424 kts 23°
2026-05-05 14:49 19.04467 109.88000 20178 ft 426 kts 23°
2026-05-05 14:50 19.07174 109.89303 20547 ft 428 kts 23°
2026-05-05 14:50 19.09889 109.90610 20895 ft 430 kts 23°
2026-05-05 14:50 19.12617 109.91925 21234 ft 432 kts 23°
2026-05-05 14:50 19.15357 109.93246 21572 ft 434 kts 23°
2026-05-05 14:51 19.18073 109.94556 21908 ft 436 kts 23°
2026-05-05 14:51 19.20840 109.95890 22242 ft 438 kts 23°
2026-05-05 14:51 19.23613 109.97229 22554 ft 440 kts 23°
2026-05-05 14:51 19.26408 109.98563 22880 ft 441 kts 22°
2026-05-05 14:52 19.29234 109.99850 23190 ft 443 kts 21°
2026-05-05 14:52 19.32081 110.01128 23498 ft 445 kts 21°
2026-05-05 14:52 19.34922 110.02445 23754 ft 447 kts 21°
2026-05-05 14:52 19.37762 110.03811 23986 ft 449 kts 22°
2026-05-05 14:53 19.40608 110.05199 24232 ft 451 kts 22°
2026-05-05 14:53 19.43424 110.06577 24477 ft 453 kts 22°
2026-05-05 14:53 19.46289 110.07976 24731 ft 454 kts 22°
2026-05-05 14:53 19.49168 110.09377 24974 ft 456 kts 22°
2026-05-05 14:54 19.52058 110.10779 25196 ft 458 kts 21°
2026-05-05 14:54 19.54962 110.12185 25432 ft 459 kts 21°
2026-05-05 14:54 19.57875 110.13595 25664 ft 461 kts 21°
2026-05-05 14:54 19.60796 110.15010 25891 ft 462 kts 21°
2026-05-05 14:55 19.63728 110.16430 26133 ft 464 kts 21°
2026-05-05 14:55 19.66627 110.17835 26341 ft 466 kts 21°
2026-05-05 14:55 19.69581 110.19266 26548 ft 467 kts 21°
2026-05-05 14:55 19.72542 110.20703 26757 ft 469 kts 21°
2026-05-05 14:56 19.75514 110.22145 26963 ft 470 kts 21°
2026-05-05 14:56 19.78496 110.23592 27157 ft 472 kts 21°
2026-05-05 14:56 19.81488 110.25046 27345 ft 474 kts 21°
2026-05-05 14:56 19.84488 110.26504 27542 ft 475 kts 21°
2026-05-05 14:57 19.87496 110.27966 27732 ft 477 kts 21°
2026-05-05 14:57 19.90516 110.29435 27918 ft 478 kts 21°
2026-05-05 14:57 19.93544 110.30909 28115 ft 479 kts 21°
2026-05-05 14:57 19.96545 110.32369 28209 ft 483 kts 21°
2026-05-05 14:58 19.99607 110.33860 28323 ft 486 kts 21°
2026-05-05 14:58 20.02682 110.35359 28520 ft 487 kts 21°
2026-05-05 14:58 20.05762 110.36860 28734 ft 487 kts 21°
2026-05-05 14:58 20.08873 110.38294 28911 ft 486 kts 16°
2026-05-05 14:59 20.12101 110.39313 29065 ft 484 kts 10°
2026-05-05 14:59 20.15374 110.40160 29242 ft 484 kts
2026-05-05 14:59 20.18656 110.40977 29479 ft 484 kts
2026-05-05 14:59 20.21928 110.41805 29761 ft 483 kts
2026-05-05 15:00 20.25146 110.42644 30038 ft 482 kts
2026-05-05 15:00 20.27346 110.43229 30159 ft 483 kts
2026-05-05 15:00 20.31665 110.44394 30410 ft 483 kts 10°
2026-05-05 15:00 20.34919 110.45278 30671 ft 481 kts 10°
2026-05-05 15:01 20.38156 110.46158 30958 ft 479 kts 10°
2026-05-05 15:01 20.41381 110.47032 31235 ft 477 kts 10°
2026-05-05 15:01 20.44596 110.47904 31464 ft 477 kts 11°
2026-05-05 15:01 20.47700 110.49225 31612 ft 488 kts 28°
2026-05-05 15:02 20.50295 110.51518 31827 ft 496 kts 45°
2026-05-05 15:02 20.52294 110.54531 32088 ft 502 kts 61°
2026-05-05 15:02 20.53594 110.57989 32400 ft 502 kts 68°
2026-05-05 15:02 20.54731 110.61511 32667 ft 501 kts 69°
2026-05-05 15:03 20.55840 110.65036 32875 ft 502 kts 69°
2026-05-05 15:03 20.56963 110.68558 33080 ft 501 kts 68°
2026-05-05 15:03 20.58110 110.72067 33322 ft 500 kts 68°
2026-05-05 15:03 20.59275 110.75561 33589 ft 499 kts 67°
2026-05-05 15:04 20.60447 110.79042 33854 ft 498 kts 67°
2026-05-05 15:04 20.61603 110.82467 34073 ft 497 kts 67°
2026-05-05 15:04 20.62772 110.85940 34273 ft 497 kts 67°
2026-05-05 15:04 20.63935 110.89406 34493 ft 496 kts 67°
2026-05-05 15:05 20.66261 110.96318 34915 ft 494 kts 67°
2026-05-05 15:05 20.67425 110.99762 35066 ft 494 kts 67°
2026-05-05 15:06 20.69767 111.06688 35069 ft 496 kts 67°
2026-05-05 15:06 20.72082 111.13556 35069 ft 493 kts 67°
2026-05-05 15:07 20.74397 111.20441 35069 ft 491 kts 67°
2026-05-05 15:07 20.76700 111.27297 35071 ft 490 kts 67°
2026-05-05 15:08 20.78997 111.34145 35078 ft 489 kts 67°
2026-05-05 15:08 20.81275 111.40947 35079 ft 490 kts 67°
2026-05-05 15:09 20.83569 111.47807 35075 ft 491 kts 67°
2026-05-05 15:09 20.86540 111.54336 35020 ft 490 kts 56°
2026-05-05 15:10 20.90084 111.60571 34982 ft 490 kts 55°
2026-05-05 15:10 20.93618 111.66789 34970 ft 488 kts 55°
2026-05-05 15:11 20.97081 111.72978 34975 ft 488 kts 56°
2026-05-05 15:11 21.00538 111.79213 34993 ft 487 kts 56°
2026-05-05 15:12 21.03986 111.85447 34980 ft 487 kts 56°
2026-05-05 15:12 21.07434 111.91685 34980 ft 487 kts 56°
2026-05-05 15:13 21.10880 111.97923 34983 ft 487 kts 56°
2026-05-05 15:13 21.14304 112.04127 34981 ft 487 kts 56°
2026-05-05 15:14 21.17752 112.10382 34984 ft 488 kts 56°
2026-05-05 15:14 21.21203 112.16650 34985 ft 489 kts 56°
2026-05-05 15:15 21.24656 112.22928 35001 ft 489 kts 56°
2026-05-05 15:15 21.28090 112.29178 34988 ft 490 kts 55°
2026-05-05 15:16 21.31550 112.35484 34985 ft 491 kts 56°
2026-05-05 15:16 21.35014 112.41804 34978 ft 492 kts 56°
2026-05-05 15:17 21.38477 112.48130 34978 ft 492 kts 55°
2026-05-05 15:17 21.41942 112.54468 34989 ft 493 kts 55°
2026-05-05 15:18 21.45387 112.60775 34979 ft 493 kts 55°
2026-05-05 15:18 21.48855 112.67132 34980 ft 493 kts 55°
2026-05-05 15:19 21.52324 112.73499 34984 ft 494 kts 55°
2026-05-05 15:19 21.55792 112.79870 34992 ft 494 kts 55°
2026-05-05 15:20 21.59240 112.86212 34988 ft 495 kts 55°
2026-05-05 15:20 21.62711 112.92606 34983 ft 495 kts 55°
2026-05-05 15:21 21.66178 112.98998 34982 ft 495 kts 55°
2026-05-05 15:21 21.69648 113.05404 34983 ft 495 kts 55°
2026-05-05 15:22 21.73090 113.11764 35001 ft 495 kts 55°
2026-05-05 15:22 21.76555 113.18176 34990 ft 496 kts 55°
2026-05-05 15:23 21.80022 113.24598 34980 ft 497 kts 55°
2026-05-05 15:23 21.83489 113.31029 34984 ft 497 kts 55°
2026-05-05 15:24 21.86955 113.37468 34985 ft 497 kts 55°
2026-05-05 15:24 21.90420 113.43911 34997 ft 497 kts 55°
2026-05-05 15:25 21.93864 113.50320 34985 ft 498 kts 55°
2026-05-05 15:25 21.97328 113.56777 35013 ft 498 kts 55°
2026-05-05 15:26 22.00792 113.63242 35000 ft 498 kts 56°
2026-05-05 15:26 22.04258 113.69718 34995 ft 499 kts 56°
2026-05-05 15:27 22.07697 113.76153 34996 ft 499 kts 56°